Redcliffe Observation History
Time Wind Speed Temp Pressure Rel. Hum Rain
03/02:00pm NE 14-16 kts 26.8°c 1009.9 hPa 67% 0.0mm
03/01:30pm NE 14-16 kts 27.2°c 1010.1 hPa 66% 0.0mm
03/01:00pm NE 13-14 kts 27.6°c 1010.2 hPa 65% 0.0mm
03/12:30pm NE 11-14 kts 27.7°c 1010.6 hPa 65% 0.0mm
03/12:00pm NE 8-11 kts 27.9°c 1011.2 hPa 65% 0.0mm
03/11:30am NE 7-8 kts 27.2°c 1011.6 hPa 64% 0.0mm
03/11:00am NE 6-8 kts 27.2°c 1012.3 hPa 69% 0.0mm
03/10:30am NNE 7-9 kts 26.3°c 1012.6 hPa 71% 0.0mm
03/10:00am NNE 6-7 kts 25.7°c 1013.0 hPa 75% 0.0mm
03/09:30am NE 8-9 kts 25.4°c 1012.9 hPa 79% 0.0mm
03/09:00am NE 7-9 kts 25.0°c 1013.0 hPa 76% 0.0mm
03/08:30am NE 4-5 kts 24.5°c 1013.1 hPa 78% 0.0mm
03/08:00am SW 5-6 kts 23.5°c 1013.3 hPa 82% 0.0mm
03/07:30am W 5 kts 22.4°c 1013.0 hPa 89% 0.0mm
03/07:00am WSW 4-6 kts 21.6°c 1012.8 hPa 94% 0.0mm
03/06:30am W 4-5 kts 20.6°c 1012.7 hPa 97% 0.0mm
03/06:00am SW 4-5 kts 20.3°c 1012.4 hPa 97% 0.0mm
03/05:30am SW 6-7 kts 20.2°c 1012.2 hPa 97% 0.0mm
03/05:00am WSW 6-7 kts 20.2°c 1012.1 hPa 95% 0.0mm
03/04:30am WSW 6-7 kts 20.4°c 1012.1 hPa 97% 0.0mm
03/04:00am WSW 5-6 kts 20.3°c 1012.1 hPa 95% 0.0mm
03/03:30am WSW 6-8 kts 20.4°c 1012.1 hPa 95% 0.0mm
03/03:00am WSW 5-6 kts 20.5°c 1012.3 hPa 95% 0.0mm
03/02:30am W 5-6 kts 20.6°c 1012.4 hPa 94% 0.0mm
03/02:00am W 6-8 kts 20.9°c 1012.6 hPa 94% 0.0mm
03/01:30am W 3-5 kts 21.1°c 1012.7 hPa 94% 0.0mm
03/01:00am W 4-5 kts 21.4°c 1013.1 hPa 92% 0.0mm
03/12:30am W 4-5 kts 21.8°c 1013.3 hPa 92% 0.0mm
03/12:00am WSW 1-5 kts 21.8°c 1013.5 hPa 91% 0.0mm
Time Wind Speed Temp Pressure Rel. Hum Rain
02/11:30pm WSW 4-5 kts 22.4°c 1013.8 hPa 89% 0.0mm
02/11:00pm N 4 kts 22.5°c 1014.3 hPa 89% 0.0mm
02/10:30pm ENE 5-6 kts 23.2°c 1014.3 hPa 88% 0.0mm
02/10:00pm ENE 5-7 kts 23.6°c 1014.0 hPa 87% 0.0mm
02/09:30pm E 6-7 kts 23.8°c 1014.2 hPa 85% 0.0mm
02/09:00pm E 7-8 kts 24.1°c 1014.3 hPa 84% 0.0mm
02/08:30pm E 8-10 kts 24.1°c 1014.0 hPa 82% 0.0mm
02/08:00pm ESE 7-8 kts 24.2°c 1014.1 hPa 81% 0.0mm
02/07:30pm E 8-9 kts 24.5°c 1014.0 hPa 79% 0.0mm
02/07:00pm E 8-10 kts 24.3°c 1013.9 hPa 77% 0.0mm
02/06:30pm E 7-8 kts 24.6°c 1014.0 hPa 77% 0.0mm
02/06:00pm ESE 9 kts 24.7°c 1013.8 hPa 77% 0.0mm
02/05:30pm ESE 8-9 kts 25.0°c 1013.8 hPa 76% 0.0mm
02/05:00pm E 8-10 kts 25.4°c 1013.6 hPa 74% 0.0mm
02/04:30pm E 9-10 kts 25.9°c 1013.6 hPa 70% 0.0mm
02/04:00pm E 8-9 kts 26.0°c 1013.4 hPa 68% 0.0mm
02/03:30pm E 8-9 kts 26.0°c 1013.1 hPa 63% 0.0mm
02/03:00pm E 7-8 kts 26.2°c 1013.5 hPa 64% 0.0mm
02/02:30pm E 8-9 kts 26.7°c 1013.6 hPa 61% 0.0mm
02/02:00pm E 8-9 kts 26.5°c 1013.6 hPa 64% 0.0mm
02/01:30pm E 5-7 kts 27.1°c 1014.0 hPa 62% 0.0mm
02/01:00pm ESE 4-5 kts 26.9°c 1014.4 hPa 62% 0.0mm
02/12:30pm E 5-6 kts 27.0°c 1014.6 hPa 65% 0.0mm
02/12:00pm ESE 5-6 kts 27.0°c 1015.0 hPa 64% 0.0mm
02/11:30am SE 5-6 kts 27.3°c 1015.6 hPa 64% 0.0mm
02/11:00am SSE 7-8 kts 27.0°c 1015.7 hPa 66% 0.0mm
02/10:30am SSE 8-10 kts 26.8°c 1016.2 hPa 66% 0.0mm
02/10:00am SSE 8-9 kts 27.1°c 1016.4 hPa 66% 0.0mm
02/09:30am S 7-8 kts 26.4°c 1016.6 hPa 65% 0.0mm
02/09:00am S 7-9 kts 25.5°c 1016.5 hPa 66% 0.0mm
02/08:30am S 9-10 kts 25.3°c 1016.6 hPa 72% 0.0mm
02/08:00am S 9-12 kts 24.5°c 1016.6 hPa 75% 0.0mm
02/07:30am SSW 8-12 kts 23.5°c 1016.2 hPa 78% 0.0mm
02/07:00am SSW 9-13 kts 22.2°c 1016.1 hPa 84% 0.0mm
02/06:30am SSW 7-10 kts 21.2°c 1015.9 hPa 87% 0.0mm
02/06:00am SSW 8-10 kts 21.1°c 1015.8 hPa 87% 0.0mm
02/05:30am SSW 8-10 kts 21.2°c 1015.9 hPa 87% 0.0mm
02/05:00am SSW 7-10 kts 21.1°c 1015.6 hPa 88% 0.0mm
02/04:30am SSW 7-9 kts 20.9°c 1015.4 hPa 90% 0.0mm
02/04:00am SW 7-9 kts 20.8°c 1015.3 hPa 90% 0.0mm
02/03:30am SSW 7-9 kts 21.0°c 1015.1 hPa 90% 0.0mm
02/03:00am SW 6-8 kts 20.9°c 1015.4 hPa 90% 0.0mm
02/02:30am SSW 8-11 kts 20.7°c 1015.6 hPa 91% 0.0mm
02/02:00am SSW 8-12 kts 21.0°c 1015.9 hPa 90% 0.0mm
02/01:30am S 8-12 kts 21.4°c 1016.3 hPa 89% 0.0mm
02/01:00am SSW 8-10 kts 21.8°c 1016.5 hPa 87% 0.0mm
02/12:30am SSW 7-10 kts 21.9°c 1016.9 hPa 87% 0.0mm
02/12:00am SSE 9-11 kts 22.1°c 1017.2 hPa 84% 0.0mm
Time Wind Speed Temp Pressure Rel. Hum Rain
01/11:30pm SSE 9-10 kts 23.6°c 1017.2 hPa 81% 0.0mm
01/11:00pm SSE 9-11 kts 23.7°c 1017.3 hPa 80% 0.0mm
01/10:30pm SSE 9-11 kts 23.8°c 1017.4 hPa 79% 0.0mm
01/10:00pm SE 10-12 kts 24.2°c 1017.4 hPa 77% 0.0mm
01/09:30pm SE 11-13 kts 24.2°c 1017.5 hPa 76% 0.0mm
01/09:00pm SE 11-14 kts 24.2°c 1017.4 hPa 77% 0.0mm
01/08:30pm SE 11-14 kts 24.3°c 1017.2 hPa 76% 0.0mm
01/08:00pm SE 11-15 kts 24.4°c 1017.1 hPa 76% 0.0mm
01/07:30pm SE 12-14 kts 23.7°c 1016.8 hPa 74% 0.0mm
01/07:00pm SE 13-16 kts 24.8°c 1016.6 hPa 72% 0.0mm
01/06:30pm SE 14-17 kts 25.0°c 1016.3 hPa 71% 0.0mm
01/06:00pm ESE 14-17 kts 25.1°c 1016.3 hPa 72% 0.0mm
01/05:30pm SE 13-16 kts 25.4°c 1016.1 hPa 71% 0.0mm
01/05:00pm SE 13-16 kts 25.8°c 1015.9 hPa 67% 0.0mm
01/04:30pm ESE 13-16 kts 26.2°c 1015.6 hPa 67% 0.0mm
01/04:00pm SE 14-16 kts 26.2°c 1015.3 hPa 65% 0.0mm
01/03:30pm SE 13-15 kts 26.6°c 1015.2 hPa 66% 0.0mm
01/03:00pm ESE 12-14 kts 26.8°c 1015.3 hPa 65% 0.0mm
01/02:30pm SE 13-16 kts 27.4°c 1015.3 hPa 62% 0.0mm
01/02:00pm SE 13-15 kts 27.1°c 1015.4 hPa 62% 0.0mm
01/01:30pm SE 15-17 kts 27.3°c 1015.6 hPa 61% 0.0mm
01/01:00pm SE 16-18 kts 27.7°c 1015.9 hPa 61% 0.0mm
01/12:30pm SE 16-18 kts 26.9°c 1016.3 hPa 67% 0.0mm
01/12:00pm SSE 14-16 kts 27.0°c 1016.7 hPa 66% 0.0mm
01/11:30am SSE 12-14 kts 26.5°c 1017.0 hPa 64% 0.0mm
01/11:00am SSE 15-17 kts 26.7°c 1017.3 hPa 64% 0.0mm
01/10:30am SSE 13-15 kts 27.6°c 1017.8 hPa 64% 0.0mm
01/10:00am SSE 12-15 kts 27.0°c 1017.8 hPa 64% 0.0mm
01/09:30am SSE 13-16 kts 26.3°c 1017.7 hPa 65% 0.0mm
01/09:00am S 12-15 kts 26.1°c 1017.8 hPa 68% 0.0mm
01/08:30am S 11-14 kts 25.4°c 1017.6 hPa 69% 0.0mm
01/08:00am SSW 8-13 kts 24.3°c 1017.7 hPa 72% 0.0mm
01/07:30am SSW 8-11 kts 23.1°c 1017.6 hPa 79% 0.0mm
01/07:00am SSW 7-10 kts 21.4°c 1017.5 hPa 86% 0.0mm
01/06:30am SW 7-10 kts 20.9°c 1017.3 hPa 88% 0.0mm
01/06:00am SSW 6-9 kts 20.8°c 1016.9 hPa 88% 0.0mm
01/05:30am SW 7-11 kts 20.6°c 1016.5 hPa 90% 0.0mm
01/05:00am SW 7-9 kts 20.7°c 1016.3 hPa 90% 0.0mm
01/04:30am SW 6-8 kts 21.1°c 1016.1 hPa 88% 0.0mm
01/04:00am SW 7-10 kts 20.9°c 1015.9 hPa 90% 0.0mm
01/03:30am SSW 6-8 kts 20.9°c 1015.8 hPa 92% 0.0mm
01/03:00am SW 6-8 kts 21.1°c 1015.7 hPa 91% 0.0mm
01/02:30am SW 5-6 kts 21.5°c 1015.8 hPa 89% 0.0mm
01/02:00am SW 5-7 kts 22.0°c 1015.9 hPa 88% 0.0mm
01/01:30am SSW 7-10 kts 22.4°c 1016.1 hPa 87% 0.0mm
01/01:00am S 10-12 kts 22.8°c 1016.2 hPa 86% 0.0mm
01/12:30am S 12-14 kts 22.9°c 1016.1 hPa 88% 0.0mm
01/12:00am S 9-11 kts 23.2°c 1016.3 hPa 84% 0.0mm